NIMBUS 2 DEB, 26962

Orbit data source: Space-Track

NIMBUS 2 DEB, 26962 is space debris in SSO originally from a launch on Sun, 15 May 1966 UTC launched from the Air Force Western Test Range (AFWTR). Debris objects in space refer to the collection of defunct objects orbiting the Earth. Examples of debris include non-operational satellites, rocket bodies, and fragments generated from explosions, collisions, or faulty payload assembly.

Loading next visibility...
Identifier
26962, 1966-040M
Orbit
SSO
Country
Flag of USUS
Related business
Manufacturer
Unknown
Mission
Spacecraft
Bus & Motor
Unknown
Mass
Unknown
Launch date (UTC)
1966-05-15 (60 years ago)
Launch vehicle
Unknown
Launch site
Air Force Western Test Range (AFWTR)
Object type
Payload
Rocket body
Debris
Shape & HBR
Unknown shape, 0.1 m
Radar Cross Section
Medium (>0.1 m² and <1 m²)

Expand to show TLE details & history
Last TLE update: 2 days ago

TLE from 2 days ago
0 NIMBUS 2 DEB
1 26962U 66040M   26171.29301072  .00000791  00000-0  12066-2 0  9996
2 26962 100.3018  82.7487 0050773 151.0354 330.2034 13.55125951228056
Epoch: 2026-06-20T07:01Z
TLE epoch observation values (Epoch: 2026-06-20T07:01:56.126Z)
Latitude
57.64204°
Longitude
-94.66242°
Altitude
1,030.341 km
Speed
7.358 km/s
True Right ascension
18h 37m 19s
True Declination
57° 29' 32"
Sunlit
Object was in daylight at epoch
Visualization orbit readout
Latitude
Unknown
Longitude
Unknown
Altitude
Unknown
Speed
Unknown
Apparent Right ascension
Unknown
Apparent Declination
Unknown
Sunlit
N/A
Visualization observer readout
Local Sidereal Time
23:20:20
Azimuth
Unknown
Elevation
Unknown
Doppler factor
Unknown
Orbital elements
Apogee altitude
1,088.504 km
Perigee altitude
1,013.066 km
Semi-major axis
7,428.922 km
Eccentricity
0.00508
Inclination
100.3018°
RAAN
82.7487°
Arg. of periapsis
151.0354°
True anomaly
329.91268°
Mean anomaly
330.2034°
Eccentric anomaly
330.0582°
Mean motion
3.38965 °/min
Orbital period
106.21 mins
BSTAR
0.0012066
Loading maneuver chart data...
Computing Atmospheric mass density...
Loading historical data...
Loading historical data...
Loading historical data...
Loading historical data...
Loading historical data...
Loading historical data...
Loading historical data...

Documentation

Showing up to 5 results
|